Orbital Elements at Epoch 2459200.5 (2020-Dec-17.0) TDB
Reference: JPL 9 (heliocentric ecliptic J2000)
Element | Value | Uncertainty (1-sigma) | Units |
e | .1302408300338984 | 5.5003e-08 | |
a | 2.438942541535899 | 1.8244e-08 | au |
q | 2.121292640521278 | 1.3843e-07 | au |
i | .4487984096579097 | 6.7357e-06 | deg |
node | 264.868122367241 | 0.0010316 | deg |
peri | 305.2507693255149 | 0.0010322 | deg |
M | 322.4704722023226 | 3.8353e-05 | deg |
tp | 2459345.534519236447 (2021-May-11.03451924) | 0.00014884 | TDB |
period | 1391.235914467115 3.81 | 1.561e-05 4.274e-08 | d yr |
n | .2587627276268891 | 2.9034e-09 | deg/d |
Q | 2.756592442550521 | 2.062e-08 | au |
|
| | Orbit Determination Parameters
Additional Information
|